When you browse on this site, cookies collect data to enhance your experience and personalize the content and advertising you see.
Visit our Privacy Policy to learn more. By continuing to use the site, you agree to this use of cookies and data.
  • In Netherlands
  • List of Countries
  • For 7 days
  • Water Temperature
  • Satellite Maps
  • Weather Map
  • Weather Widgets
  • user-avatar
    Login

    Hourly Weather Chetyrehyarskiy

    Today, 11 December, Tuesday

    Time Temperature Precipitation Wind Pressure Humidity
    00:00 +1°C° 0.1 mm 6 mps 758 mmHg 92%
    01:00 +1°C° 0 mm 6 mps 758 mmHg 93%
    02:00 +1°C° 0 mm 5 mps 757 mmHg 93%
    03:00 +1°C° 0 mm 3 mps 757 mmHg 95%
    04:00 0°C° 0 mm 4 mps 757 mmHg 95%
    05:00 0°C° 0 mm 4 mps 757 mmHg 95%
    06:00 0°C° 0 mm 5 mps 757 mmHg 95%
    07:00 0°C° 0 mm 5 mps 757 mmHg 94%
    08:00 0°C° 0 mm 5 mps 757 mmHg 94%
    09:00 0°C° 0 mm 5 mps 757 mmHg 93%
    10:00 +1°C° 0 mm 6 mps 756 mmHg 92%
    11:00 +1°C° 0 mm 6 mps 756 mmHg 91%
    12:00 +2°C° 0 mm 6 mps 756 mmHg 90%
    13:00 +2°C° 0 mm 6 mps 755 mmHg 90%
    14:00 +2°C° 0 mm 6 mps 755 mmHg 91%
    15:00 +2°C° 0 mm 5 mps 754 mmHg 91%
    16:00 +1°C° 0.1 mm 5 mps 755 mmHg 92%
    17:00 +1°C° 0.1 mm 4 mps 755 mmHg 93%
    18:00 +1°C° 0.1 mm 4 mps 755 mmHg 94%
    19:00 +1°C° 0.7 mm 4 mps 755 mmHg 94%
    20:00 +2°C° 0.7 mm 5 mps 755 mmHg 95%
    21:00 +2°C° 0.7 mm 5 mps 755 mmHg 95%
    22:00 +2°C° 0.3 mm 5 mps 755 mmHg 95%
    23:00 +2°C° 0.3 mm 5 mps 755 mmHg 95%

    Tomorrow, 12 December, Wednesday

    Time Temperature Precipitation Wind Pressure Humidity
    00:00 +2°C° 0.3 mm 5 mps 755 mmHg 95%
    01:00 +2°C° 0 mm 5 mps 755 mmHg 95%
    02:00 +2°C° 0 mm 5 mps 755 mmHg 94%
    03:00 +2°C° 0 mm 5 mps 755 mmHg 94%
    04:00 +3°C° 0 mm 5 mps 755 mmHg 92%
    05:00 +3°C° 0 mm 6 mps 755 mmHg 91%
    06:00 +3°C° 0 mm 6 mps 755 mmHg 89%
    07:00 +3°C° 0 mm 5 mps 755 mmHg 88%
    08:00 +3°C° 0 mm 5 mps 755 mmHg 87%
    09:00 +3°C° 0 mm 5 mps 755 mmHg 86%
    10:00 +4°C° 0 mm 6 mps 755 mmHg 81%
    11:00 +5°C° 0 mm 6 mps 755 mmHg 75%
    12:00 +6°C° 0 mm 7 mps 755 mmHg 70%
    13:00 +7°C° 0 mm 6 mps 755 mmHg 70%
    14:00 +7°C° 0 mm 6 mps 756 mmHg 70%
    15:00 +6°C° 0 mm 5 mps 756 mmHg 71%
    16:00 +5°C° 0 mm 4 mps 756 mmHg 74%
    17:00 +4°C° 0 mm 4 mps 757 mmHg 77%
    18:00 +4°C° 0 mm 3 mps 757 mmHg 80%
    19:00 +3°C° 0 mm 3 mps 757 mmHg 81%
    20:00 +3°C° 0 mm 3 mps 757 mmHg 82%
    21:00 +3°C° 0 mm 3 mps 758 mmHg 83%
    22:00 +3°C° 0 mm 3 mps 758 mmHg 83%
    23:00 +3°C° 0 mm 3 mps 758 mmHg 84%

    Day after tomorrow, 13 December, Thursday

    Time Temperature Precipitation Wind Pressure Humidity
    00:00 +3°C° 0 mm 3 mps 759 mmHg 85%
    01:00 +2°C° 0 mm 3 mps 759 mmHg 86%
    02:00 +2°C° 0 mm 3 mps 759 mmHg 87%
    03:00 +2°C° 0 mm 3 mps 760 mmHg 88%
    04:00 +2°C° 0 mm 3 mps 760 mmHg 89%
    05:00 +1°C° 0 mm 3 mps 760 mmHg 90%
    06:00 +1°C° 0 mm 3 mps 760 mmHg 91%
    07:00 +2°C° 0 mm 2 mps 761 mmHg 91%
    08:00 +2°C° 0 mm 2 mps 761 mmHg 91%
    09:00 +1°C° 0 mm 2 mps 761 mmHg 90%
    10:00 +1°C° 0 mm 3 mps 762 mmHg 84%
    11:00 +2°C° 0 mm 3 mps 762 mmHg 78%
    12:00 +3°C° 0 mm 4 mps 762 mmHg 71%
    13:00 +3°C° 0 mm 4 mps 763 mmHg 71%
    14:00 +3°C° 0 mm 3 mps 763 mmHg 70%
    15:00 +3°C° 0 mm 3 mps 763 mmHg 70%
    16:00 +4°C° 0 mm 2 mps 764 mmHg 74%
    17:00 +3°C° 0 mm 2 mps 764 mmHg 77%
    18:00 +2°C° 0 mm 2 mps 764 mmHg 81%
    19:00 +2°C° 0 mm 2 mps 765 mmHg 82%
    20:00 +1°C° 0 mm 2 mps 765 mmHg 83%
    21:00 +1°C° 0 mm 2 mps 765 mmHg 84%
    22:00 +1°C° 0 mm 2 mps 765 mmHg 85%
    23:00 +2°C° 0 mm 1 mps 766 mmHg 85%

    14 December, Friday

    Time Temperature Precipitation Wind Pressure Humidity
    00:00 +2°C° 0 mm 1 mps 766 mmHg 85%
    01:00 +2°C° 0 mm 1 mps 766 mmHg 86%
    02:00 +2°C° 0 mm 1 mps 766 mmHg 86%
    03:00 +1°C° 0 mm 1 mps 766 mmHg 87%
    04:00 +1°C° 0 mm 1 mps 766 mmHg 87%
    05:00 +1°C° 0 mm 1 mps 766 mmHg 87%
    06:00 +1°C° 0 mm 1 mps 766 mmHg 87%
    07:00 +2°C° 0 mm 1 mps 767 mmHg 85%
    08:00 +2°C° 0 mm 1 mps 767 mmHg 84%
    09:00 +2°C° 0 mm 1 mps 767 mmHg 82%
    10:00 +3°C° 0 mm 1 mps 767 mmHg 77%
    11:00 +4°C° 0 mm 1 mps 767 mmHg 72%
    12:00 +5°C° 0 mm 1 mps 767 mmHg 67%
    13:00 +5°C° 0 mm 1 mps 767 mmHg 69%
    14:00 +5°C° 0 mm 1 mps 767 mmHg 70%
    15:00 +4°C° 0 mm 0 mps 767 mmHg 72%
    16:00 +4°C° 0 mm 0 mps 767 mmHg 76%
    17:00 +3°C° 0 mm 0 mps 767 mmHg 79%
    18:00 +2°C° 0 mm 0 mps 767 mmHg 83%
    19:00 +2°C° 0 mm 0 mps 767 mmHg 84%
    20:00 +1°C° 0 mm 0 mps 767 mmHg 85%
    21:00 +1°C° 0 mm 0 mps 768 mmHg 85%
    22:00 +1°C° 0 mm 0 mps 768 mmHg 86%
    23:00 +1°C° 0 mm 0 mps 768 mmHg 87%

    15 December, Saturday

    Time Temperature Precipitation Wind Pressure Humidity
    00:00 +1°C° 0 mm 0 mps 768 mmHg 87%
    01:00 +2°C° 0 mm 1 mps 768 mmHg 88%
    02:00 +2°C° 0 mm 1 mps 768 mmHg 88%
    03:00 +2°C° 0 mm 1 mps 768 mmHg 89%
    04:00 +1°C° 0 mm 1 mps 769 mmHg 89%
    05:00 +1°C° 0 mm 1 mps 769 mmHg 89%
    06:00 +1°C° 0 mm 1 mps 769 mmHg 90%
    07:00 +1°C° 0 mm 1 mps 769 mmHg 89%
    08:00 +1°C° 0 mm 1 mps 770 mmHg 89%
    09:00 +2°C° 0 mm 1 mps 770 mmHg 88%
    10:00 +3°C° 0 mm 1 mps 770 mmHg 83%
    11:00 +4°C° 0 mm 1 mps 770 mmHg 78%
    12:00 +5°C° 0 mm 1 mps 770 mmHg 73%
    13:00 +5°C° 0 mm 1 mps 770 mmHg 74%
    14:00 +5°C° 0 mm 1 mps 770 mmHg 74%
    15:00 +5°C° 0 mm 1 mps 770 mmHg 74%
    16:00 +4°C° 0 mm 1 mps 771 mmHg 78%
    17:00 +3°C° 0 mm 1 mps 771 mmHg 82%
    18:00 +2°C° 0 mm 1 mps 771 mmHg 86%
    19:00 +1°C° 0 mm 1 mps 771 mmHg 87%
    20:00 +1°C° 0 mm 1 mps 772 mmHg 87%
    21:00 +1°C° 0 mm 1 mps 772 mmHg 88%
    22:00 +1°C° 0 mm 1 mps 772 mmHg 88%
    23:00 0°C° 0 mm 1 mps 772 mmHg 89%

    16 December, Sunday

    Time Temperature Precipitation Wind Pressure Humidity
    00:00 -2°C° 0 mm 2 mps 772 mmHg 89%
    01:00 -2°C° 0 mm 2 mps 772 mmHg 89%
    02:00 -2°C° 0 mm 2 mps 772 mmHg 90%
    03:00 -2°C° 0 mm 2 mps 773 mmHg 90%
    04:00 -2°C° 0 mm 2 mps 773 mmHg 90%
    05:00 -3°C° 0 mm 2 mps 773 mmHg 90%
    06:00 -3°C° 0 mm 2 mps 773 mmHg 90%
    07:00 -3°C° 0 mm 2 mps 773 mmHg 89%
    08:00 -3°C° 0 mm 2 mps 773 mmHg 87%
    09:00 -2°C° 0 mm 3 mps 773 mmHg 86%
    10:00 -2°C° 0 mm 3 mps 773 mmHg 81%
    11:00 -1°C° 0 mm 3 mps 773 mmHg 77%
    12:00 0°C° 0 mm 3 mps 773 mmHg 72%
    13:00 0°C° 0 mm 3 mps 773 mmHg 72%
    14:00 0°C° 0 mm 3 mps 772 mmHg 72%
    15:00 0°C° 0 mm 3 mps 772 mmHg 72%
    16:00 -1°C° 0 mm 3 mps 772 mmHg 75%
    17:00 -1°C° 0 mm 3 mps 773 mmHg 78%
    18:00 -2°C° 0 mm 3 mps 773 mmHg 82%
    19:00 -2°C° 0 mm 3 mps 773 mmHg 82%
    20:00 -2°C° 0 mm 3 mps 773 mmHg 82%
    21:00 -2°C° 0 mm 3 mps 773 mmHg 82%
    22:00 -2°C° 0 mm 3 mps 773 mmHg 82%
    23:00 -2°C° 0 mm 3 mps 773 mmHg 82%
    Show more